Regional Weather Roundup
Issued by NWS

Home | Current Version | Previous Version | Graphics & Text | Print | Product List | Glossary On
Versions: 1 2 3 4 5 6 7 8 9 10 11 12 13 14 15 16 17 18 19 20 21 22 23 24 25 26 27 28 29 30 31 32 33 34 35 36 37 38 39 40 41 42 43 44 45 46 47 48 49 50
000
ASUS45 KTFX 241910
RWRMT
MONTANA REGIONAL WEATHER ROUNDUP
NATIONAL WEATHER SERVICE GREAT FALLS MT
100 PM MDT TUE APR 24 2018

NOTE: "FAIR" INDICATES FEW OR NO CLOUDS BELOW 12000 FEET WITH NO
SIGNIFICANT WEATHER AND/OR OBSTRUCTIONS TO VISIBILITY.

MTZ001>007-043-242000-
WEST OF THE DIVIDE

CITY           SKY/WX    TMP DP  RH WIND       PRES   REMARKS
KALISPELL      FAIR      56  23  27 VRB7      30.40F
MISSOULA       FAIR      55  28  35 CALM      30.41F
BUTTE          FAIR      47  21  35 S10       30.44F
MULLAN PASS    FAIR      47  19  33 VRB3      30.39F
ANACONDA         N/A     52  12  20 SE7       30.42F
DEER LODGE       N/A     52  19  28 S9        30.44F
HAMILTON         N/A     54  23  30 MISG      30.41F
PLAINS           N/A     61  26  26 CALM      30.37F
RONAN            N/A     55  23  28 NW7       30.42F
$$

MTZ008-052>055-242000-
SOUTHWEST MONTANA

CITY           SKY/WX    TMP DP  RH WIND       PRES   REMARKS
BOZEMAN        FAIR      47  29  49 CALM      30.46F
DILLON         FAIR      44  25  47 SW7       30.45F
ENNIS          SUNNY     43  28  56 VRB3G12   30.48F
W YELLOWSTONE  FAIR      39  18  41 CALM      30.42F
THREE FORKS      N/A     47  31  54 CALM      30.41F
TWIN BRIDGES     N/A     47  22  37 NW5       30.38F
$$

MTZ009-010-012-014-046-048-049-054-242000-
EAST SLOPES AND CENTRAL MONTANA

CITY           SKY/WX    TMP DP  RH WIND       PRES   REMARKS
CUT BANK       FAIR      63  12  13 S15       30.31F
GREAT FALLS    FAIR      57  21  24 S16G26    30.38F
HELENA         FAIR      52  30  43 SE8       30.43F
CHOTEAU          N/A     61  18  18 S18       30.36F
WHITE SULPHUR    N/A     45  27  49 S13G21    30.44F
$$

MTZ011-013-016-021-045-047-050-051-242000-
NORTH CENTRAL MONTANA

CITY           SKY/WX    TMP DP  RH WIND       PRES   REMARKS
HAVRE          FAIR      61  22  22 SW17G28   30.36F
LEWISTOWN      FAIR      50  24  36 VRB6      30.42F
N BAR RANCH    FAIR      48  27  43 S13G22    30.46F
CHINOOK          N/A     59  27  29 E5        30.37F
$$

MTZ017>020-022>027-061-062-242000-
NORTHEAST MONTANA

CITY           SKY/WX    TMP DP  RH WIND       PRES   REMARKS
GLASGOW        FAIR      60  23  24 SW7G16    30.41F
GLENDIVE       FAIR      54  31  41 VRB3      30.47F
JORDAN           N/A     56  27  32 SW8       30.44F
MALTA          SUNNY     59  28  31 SW9G20    30.38F
SIDNEY         FAIR      56  30  37 S16       30.45F
WOLF POINT     FAIR      59  22  24 MISG      30.43F
PLENTYWOOD       N/A     55  23  28 CALM      30.41F
POPLAR           N/A     57  21  24 S6        30.43F
$$

MTZ028>42-056>058-242000-
SOUTHCENTRAL AND SOUTHEAST MONTANA

CITY           SKY/WX    TMP DP  RH WIND       PRES   REMARKS
BAKER          FAIR      40  37  89 SW9       30.50F
BILLINGS       FAIR      49  28  44 VRB5      30.48F
LIVINGSTON     FAIR      45  29  53 CALM      30.46F
MILES CITY     FAIR      50  32  50 W8        30.47F
BIG TIMBER     SUNNY     39  30  70 SW5       30.49F
FORSYTH          N/A     48  30  49 SW8       30.48F
$$

REGIONAL REPORTS...DAKOTAS

CITY           SKY/WX    TMP DP  RH WIND       PRES   REMARKS
WILLISTON      FAIR      57  21  24 CALM      30.44F
MINOT          FAIR      58  21  24 NW10G22   30.41F
DICKINSON      FAIR      52  19  27 MISG      30.44F
BISMARCK       FAIR      55  25  31 N20       30.44F
GRAND FORKS    FAIR      50  32  50 N24G31    30.38F
FARGO          FAIR      53  34  48 NW21      30.36S
BUFFALO SD       N/A     50  22  33 N9G21     30.41
RAPID CITY     CLOUDY    41  29  62 N22       30.46S
$$

REGIONAL REPORTS...WYOMING/IDAHO/WASHINGTON

CITY           SKY/WX    TMP DP  RH WIND       PRES   REMARKS
GILLETTE       CLOUDY    41  28  60 NW12      30.48F
SHERIDAN       FAIR      50  26  39 CALM      30.48F
BUFFALO WY     FAIR      45  22  40 VRB6      30.48F
CODY           FAIR      45  21  38 E7        30.48F
YELLOWSTONE LA   N/A     34  16  47 VRB6      30.47F WCI  29
IDAHO FALLS    FAIR      50  34  54 VRB6      30.40F
SALMON         FAIR      53  25  33 SW9       30.40F
BOISE          FAIR      61  32  33 VRB3      30.34F
SPOKANE        PTSUNNY   61  21  21 E6        30.34F
$$

REGIONAL REPORTS...ALBERTA

CITY           SKY/WX    TMP DP  RH WIND       PRES   REMARKS
CALGARY        CLOUDY    66  12  12 S8        30.18F
CARDSTON         N/A     66  14  13 W8          N/A
EDMONTON       PTSUNNY   64  25  22 SW9       30.12F
FORT MCMURRAY  SUNNY     64  25  22 W28G37    29.88F
HIGH LEVEL     MOSUNNY   57  28  33 VRB8G22   29.90S
LETHBRIDGE     PTSUNNY   70  12  11 SW16G26   30.22F
LLOYDMINSTER   MOSUNNY   66  30  26 SW16G23   30.11F
MEDICINE HAT   MOSUNNY   66  19  16 SW20G30   30.25F
ONEFOUR          N/A     59  25  27 S20G28      N/A
PEACE RIVER    CLOUDY    54  30  40 W12G17    30.04S
PINCHER CREEK  SUNNY     61  21  21 W25G36    30.25F
$$

REGIONAL REPORTS...SASKATCHEWAN

CITY           SKY/WX    TMP DP  RH WIND       PRES   REMARKS
ESTEVAN        MOSUNNY   57  21  24 W7G17     30.40F
MOOSE JAW        N/A     63  21  20 SW15G23     N/A
PRINCE ALBERT  PTSUNNY   63  32  31 SW14G23   30.19F
REGINA         MOSUNNY   61  25  25 SW18      30.33F
SASKATOON      PTSUNNY   66  27  22 SW22G32   30.24F
SWIFT CURRENT  SUNNY     61  23  23 SW21G29   30.30F
VAL MARIE        N/A     59  19  21 SW16G22     N/A
$$



USA.gov is the U.S. government's official web portal to all federal, state and local government web resources and services.